Date,TemperatureHighF,TemperatureAvgF,TemperatureLowF,DewpointHighF,DewpointAvgF,DewpointLowF,HumidityHigh,HumidityAvg,HumidityLow,PressureMaxIn,PressureMinIn,WindSpeedMaxMPH,WindSpeedAvgMPH,GustSpeedMaxMPH,PrecipitationSumIn
2013-7-1,76.6,62.3,49.6,62.2,53.5,47.7,94,74,54,30.12,29.97,4,1,8,0.00
2013-7-2,76.8,65.8,56.1,62.9,56.2,51.7,88,72,49,30.02,29.89,10,1,23,0.00
2013-7-3,61.9,58.0,56.5,58.0,55.6,53.7,97,92,76,29.96,29.89,5,1,8,0.26
2013-7-4,65.8,62.7,59.5,58.1,56.3,53.4,86,80,74,30.24,30.14,9,6,18,0.01
2013-7-5,76.5,64.0,52.5,63.6,56.4,50.0,93,77,62,30.29,30.21,5,2,11,0.00
2013-7-6,78.8,67.2,56.1,66.2,59.7,53.8,94,78,62,30.23,30.14,4,1,10,0.00
2013-7-7,80.6,69.6,58.6,66.9,60.1,55.9,91,73,57,30.19,30.12,5,2,10,0.00
2013-7-8,81.0,68.9,59.0,65.8,61.3,56.7,93,78,58,30.18,30.09,6,1,10,0.00
2013-7-9,80.2,70.4,61.3,67.8,62.6,59.0,93,77,59,30.12,29.99,4,1,10,0.00
2013-7-10,78.4,69.2,61.2,67.0,62.5,59.1,93,80,64,30.00,29.86,7,2,16,0.01
2013-7-11,78.6,66.6,58.3,66.2,60.9,56.8,96,83,63,29.94,29.88,6,2,13,0.20
2013-7-12,79.2,68.5,56.7,64.3,58.4,54.4,92,71,57,30.00,29.94,6,2,11,0.00
2013-7-13,75.4,65.8,57.4,60.0,55.7,52.7,86,71,57,30.03,29.99,6,2,13,0.00
2013-7-14,80.4,69.5,57.9,64.3,56.6,51.6,86,65,44,30.06,30.01,7,2,15,0.00
2013-7-15,80.8,69.9,58.8,63.6,56.6,51.4,82,63,51,30.10,30.05,7,2,13,0.00
2013-7-16,82.4,70.8,58.3,63.7,57.1,51.6,82,63,41,30.09,30.03,4,2,9,0.00
2013-7-17,81.0,68.8,60.4,64.6,59.5,55.6,96,74,45,30.09,30.00,6,1,15,0.17
2013-7-18,73.0,65.1,61.2,65.3,62.0,60.2,97,90,67,30.07,30.02,7,1,18,0.09
2013-7-19,78.4,65.3,60.1,65.1,61.2,58.4,97,88,59,30.06,30.00,7,1,15,0.16
2013-7-20,80.2,66.8,56.5,64.2,59.6,55.6,97,80,51,30.04,29.95,3,1,7,0.00
2013-7-21,85.8,71.7,60.6,66.8,62.2,58.5,94,74,40,30.03,29.96,3,1,9,0.00
2013-7-22,85.3,73.1,64.6,68.4,63.4,59.3,92,73,47,30.01,29.91,4,1,9,0.00
2013-7-23,81.0,69.3,61.0,70.0,62.8,58.3,94,81,57,29.97,29.85,10,1,20,0.73
2013-7-24,80.6,71.2,60.1,68.2,63.8,58.9,98,79,53,30.03,29.93,6,1,12,0.43
2013-7-25,83.1,73.3,62.6,70.7,63.9,58.5,89,73,57,30.00,29.93,3,0,6,0.00
2013-7-26,86.7,74.7,63.3,68.6,64.2,60.5,94,72,46,29.95,29.83,3,1,9,0.00
2013-7-27,89.4,76.0,63.9,65.5,60.5,55.0,85,61,38,29.86,29.68,4,1,11,0.00
2013-7-28,82.6,71.0,63.0,66.2,60.0,54.9,96,70,49,29.95,29.76,10,2,20,0.89
2013-7-29,63.1,61.4,58.5,62.0,59.7,55.9,98,94,87,30.13,29.92,9,2,19,0.82
2013-7-30,74.1,67.9,57.6,60.3,56.9,55.1,95,69,54,30.22,30.15,6,3,13,0.00
2013-7-31,80.4,68.8,59.7,67.4,60.2,55.1,90,75,57,30.18,30.01,4,1,8,0.00